Location: Boiro
(42.6475°N, 8.8834°W)
Time: 01:08:29
(UTC+01:00)

Explorer 7 - Pass Details

Date: 07 December 2021
Orbit: 483 x 674 km, 50.3° (Epoch: 23 January)

Event Time Altitude Azimuth Distance (km) Brightness Sun altitude
Rises 09:44:33 0° 296° (WNW) 2,744 9.7 7.0°
Reaches altitude 10° 09:47:04 10° 307° (NW) 1,812 8.9 7.4°
Maximum altitude 09:50:43 30° 10° (N) 961 7.9 7.9°
Drops below altitude 10° 09:54:11 10° 73° (ENE) 1,722 9.9 8.4°
Sets 09:56:31 0° 84° (E) 2,583 10.9 8.7°
